Weather Service Report


287 
ASUS43 KMKX 040600
RWRWI 

WISCONSIN REGIONAL WEATHER ROUNDUP
NATIONAL WEATHER SERVICE MILWAUKEE/SULLIVAN WI
100 AM CDT TUE AUG 04 2015

NOTE: "FAIR" INDICATES FEW OR NO CLOUDS BELOW 12,000 FEET WITH NO
SIGNIFICANT WEATHER AND/OR OBSTRUCTIONS TO VISIBILITY.

WIZ001-002-006>008-014>016-023>028-040700-
NORTHWEST WISCONSIN
  
CITY           SKY/WX    TMP DP  RH WIND       PRES   REMARKS
SUPERIOR ARPT  CLEAR     55  51  88 SW5       29.91R                  
ASHLAND        MOCLDY    59  54  83 W3        29.89S                  
6HR MIN TEMP:  59; 6HR MAX TEMP:  69;                                

HAYWARD        CLEAR     54  50  86 CALM      29.92S                  
6HR MIN TEMP:  54; 6HR MAX TEMP:  69;                                

SIREN          CLEAR     55  52  91 CALM      29.94R                  
CUMBERLAND     PTCLDY    55  52  88 NW5       29.94R                  
RICE LAKE      MOCLDY    59  53  80 W3        29.94S                  
CHETEK         CLEAR     62  55  78 W5        29.93R                  
LADYSMITH      CLEAR     62  54  75 NW8       29.93R                  
EAU CLAIRE     NOT AVBL                                               
MENOMONIE      CLEAR     62  55  76 W5        29.93R                  
NEW RICHMOND   CLEAR     58  53  83 CALM      29.95R                  
OSCEOLA        MOCLDY    58  58 100 CALM      29.97S                  
$$
 
WIZ003>005-009-010-017-018-040700-
NORTH CENTRAL WISCONSIN
  
CITY           SKY/WX    TMP DP  RH WIND       PRES   REMARKS
MANITOWISH WTR MOCLDY    56  56 100 NW3       29.89S                  
ARBOR VITAE    MOCLDY    58  56  91 NW3       29.89S                  
WOODRUFF       MOCLDY    58  56  91 NW3       29.89S                  
RHINELANDER    CLOUDY    59  55  87 CALM      29.91R                  
6HR MIN TEMP:  58; 6HR MAX TEMP:  67;                                

EAGLE RIVER    DRIZZLE   56  56  98 W3        29.89S                  
LAND O LAKES   CLOUDY    57  55  94 NW6       29.90R                  
PHILLIPS       PTCLDY    58  55  88 NW3       29.91R                  
TOMAHAWK       CLOUDY    58  55  89 CALM      29.91R                  
MEDFORD        CLOUDY    61  55  81 W6        29.91S                  
MERRILL        NOT AVBL                                               
$$
 
WIZ029-030-035-036-043>047-040700-
CENTRAL WISCONSIN
  
CITY           SKY/WX    TMP DP  RH WIND       PRES   REMARKS
WAUSAU         CLOUDY    64  55  72 NW9       29.89R                  
6HR MIN TEMP:  63; 6HR MAX TEMP:  70;                                

MOSINEE        CLOUDY    61  55  82 CALM      29.91R                  
MARSHFIELD     CLOUDY    62  53  72 W6        29.91R                  
6HR MIN TEMP:  57; 6HR MAX TEMP:  71;                                

STEVENS POINT  CLOUDY    62  53  71 SW3       29.90S                  
WAUPACA        PTCLDY    60  54  81 CALM      29.90S                  
WAUTOMA        NOT AVBL                                               
WISC RAPIDS    CLOUDY    61  52  72 SW5       29.91S                  
6HR MIN TEMP:  56; 6HR MAX TEMP:  76; 6HR PCP: TRACE;                

CAMP DOUGLAS   NOT AVBL                                               
$$
 
WIZ011>013-019>022-031-037>040-048>050-040700-
NORTHEAST WISCONSIN
  
CITY           SKY/WX    TMP DP  RH WIND       PRES   REMARKS
ANTIGO         CLOUDY    57  55  92 W5        29.90S                  
SHAWANO        CLEAR     60  56  86 CALM      29.88S                  
OCONTO         PTCLDY    61  57  88 W3        29.86R                  
STURGEON BAY   MOCLDY    63  54  72 NW14      29.89R                  
6HR MIN TEMP:  57; 6HR MAX TEMP:  70;                                

GREEN BAY      CLEAR     61  56  83 SW3       29.88R                  
6HR MIN TEMP:  59; 6HR MAX TEMP:  71;                                

MANITOWOC      NOT AVBL                                               
APPLETON       CLEAR     59  50  72 W5        29.89S                  
CLINTONVILLE   MOCLDY    59  52  77 W3        29.88S                  
OSHKOSH        CLEAR     62  53  72 W3        29.89S                  
6HR MIN TEMP:  62; 6HR MAX TEMP:  75;                                

$$
 
WIZ032>034-041-042-053>061-040700-
SOUTHWEST WISCONSIN
  
CITY           SKY/WX    TMP DP  RH WIND       PRES   REMARKS
LA CROSSE      CLEAR     63  56  78 S6        29.91S                  
6HR MIN TEMP:  61; 6HR MAX TEMP:  78;                                

SPARTA         PTCLDY    54  51  89 CALM      29.92F                  
VIROQUA        CLEAR     61  52  72 W5        29.94S                  
BOSCOBEL       CLEAR     58  55  90 SW3       29.94S                  
6HR MIN TEMP:  56; 6HR MAX TEMP:  79;                                

PRAIRIE DU CHI CLEAR     58  54  85 CALM      29.94S                  
PLATTEVILLE    CLEAR     60  55  83 CALM      29.95S                  
$$

WIZ056-057-062-063-064-067-068-040700-
SOUTH CENTRAL WISCONSIN
  
CITY           SKY/WX    TMP DP  RH WIND       PRES   REMARKS
REEDSBURG      CLEAR     57  54  91 CALM      29.92S                  
BARABOO/DELLS  CLEAR     58  51  76 CALM      29.92S                  
LONE ROCK      NOT AVBL                                               
MINERAL POINT  CLEAR     61  54  77 W3        29.95R                  
MADISON        CLEAR     62  53  72 CALM      29.92S                  
6HR MIN TEMP:  62; 6HR MAX TEMP:  76;                                

MIDDLETON      CLEAR     57  53  87 CALM      29.93S                  
WATERTOWN      CLEAR     57  56  96 CALM      29.91S                  
MONROE         CLEAR     64  54  68 W9        29.94S                  
JANESVILLE     CLEAR     61  54  77 CALM      29.92S                  
$$
 
WIZ051-052-058>065-066-070>072-040700-
SOUTHEAST WISCONSIN
  
CITY           SKY/WX    TMP DP  RH WIND       PRES   REMARKS
MILWAUKEE      PTCLDY    69  51  52 NW5       29.90S                  
6HR MIN TEMP:  69; 6HR MAX TEMP:  79;                                

WAUKESHA       CLEAR     61  50  67 W6        29.93S                  
MILWAUKEE/TIMM CLEAR     63  50  63 CALM      29.91S                  
RACINE         CLEAR     65  52  62 W5        29.92R                  
6HR MIN TEMP:  65; 6HR MAX TEMP:  78;                                

BURLINGTON     CLEAR     56  54  90 CALM      29.92R                  
KENOSHA        CLEAR     59  53  80 SW3       29.91S                  
6HR MIN TEMP:  59; 6HR MAX TEMP:  76;                                

FOND DU LAC    CLEAR     61  54  77 SW7       29.90S                  
6HR MIN TEMP:  58; 6HR MAX TEMP:  76;                                

SHEBOYGAN      CLEAR     61  55  81 W5        29.89S                  
6HR MIN TEMP:  60; 6HR MAX TEMP:  76;                                

WEST BEND      CLEAR     61  52  72 CALM      29.91R                  
JUNEAU         CLEAR     57  53  86 CALM      29.92S                  
$$

LSZ147-162-040700-
LAKE SUPERIOR
  
STATION/POSITION TIME  TEMP    WIND        PRES    WAVE
                       AIR SEA DIR/SP/G            HT/PER
                 (UTC) (F)     (DEG/KT/KT) (MB)    (FT/S)
W MID LAKE BUOY  0450   58 56  280/ 10/ 12 1010.1R   2/ 4
DEVILS ISLAND    0500   57     260/ 11/ 12 1011.2S
PORT WING        0540   63     250/  7/ 10 1012.5R
SAXON HARBOR     0540   61     200/  2     1011.5R
$$
 
LMZ867-665-643>646-040700-
LAKE MICHIGAN
  
STATION/POSITION TIME  TEMP    WIND        PRES    WAVE
                       AIR SEA DIR/SP/G            HT/PER
                 (UTC) (F)     (DEG/KT/KT) (MB)    (FT/S)
CHAMBERS ISLAND  0500   66     270/  3/  8 1010.8R
S GREEN BAY BUOY 0500   67 71  260/  8/ 10 1012.2
N MID LAKE BUOY  0450   65 68  200/  4/  4 1009.8S   1
NORTHPORT PIER   0500   66     260/  4/  6 1010.8R
SISTER BAY       0518   68     320/ 12/ 13   N/A
ALGOMA LAKESHORE 0512           CALM  /  2   N/A
KEWAUNEE LAKESHO 0500   62     300/  3/  5 1010.7R
SHEBOYGAN LAKESH 0500   68     270/  8/  9 1012.0R
PORT WASHINGTON  0500   67     280/  4/  6 1012.9
ATWATER BUOY     0500   67 64  280/  6/  6 1013.8R
MILWAUKEE LAKESH 0500   71     300/  4/  7   N/A
KENOSHA   LAKESH 0500   69     280/  8/ 11 1012.2R
$$

TC  - TEMPERATURE IN CELSIUS
VSB - VISIBILITY IN STATUTE MILES
WCI - WIND CHILL INDEX
HX  - HEAT INDEX


Return to Home page


Western Regional Climate Center, wrcc@dri.edu